Location: Kellogg
(38.0159°N, 90.0546°W)
Time: 11:38:10
(UTC+00:00)

Courier 1B - Pass Details

Date: 14 September 2024
Orbit: 962 x 1208 km, 28.3° (Epoch: 11 October)

Event Time Altitude Azimuth Distance (km) Brightness Sun altitude
Rises 21:09:49 0° 244° (WSW) 3,913 11.7 33.5°
Reaches altitude 10° 21:12:44 10° 237° (WSW) 2,992 11.5 33.0°
Maximum altitude 21:19:28 38° 172° (S) 1,700 9.3 31.8°
Drops below altitude 10° 21:26:29 10° 107° (ESE) 3,122 9.8 30.5°
Sets 21:29:35 0° 100° (E) 4,100 10.3 30.0°
